| time (UTC) | temp F | wind direction | speed knots | gust knots | rain 1hr in | rain 24hr in | rain mn in | humidity % | barometer mb |
| 20260505024559 | 63 | 242 | 5.2 | 9.6 | 0.00 | 0.00 | 0.00 | 65 | 1022.8 |
| 20260505023102 | 62 | 237 | 5.2 | 7.8 | 0.00 | 0.00 | 0.00 | 64 | 1023.0 |
| 20260505021559 | 62 | 260 | 5.2 | 8.7 | 0.00 | 0.00 | 0.00 | 66 | 1022.9 |
| 20260505020058 | 62 | 249 | 3.5 | 6.1 | 0.00 | 0.00 | 0.00 | 67 | 1023.1 |
| 20260505014535 | 62 | 250 | 3.5 | 7.8 | 0.00 | 0.00 | 0.00 | 66 | 1023.1 |
| 20260505013031 | 62 | 254 | 3.5 | 7.8 | 0.00 | 0.00 | 0.00 | 67 | 1023.1 |
| 20260505011546 | 61 | 251 | 3.5 | 6.1 | 0.00 | 0.00 | 0.00 | 70 | 1022.9 |
| 20260505010026 | 61 | 257 | 2.6 | 7.0 | 0.00 | 0.00 | 0.00 | 69 | 1022.9 |
| 20260505004522 | 60 | 260 | 3.5 | 7.8 | 0.00 | 0.00 | 0.00 | 71 | 1022.7 |
| 20260505003019 | 59 | 233 | 4.3 | 7.8 | 0.00 | 0.00 | 0.00 | 74 | 1022.6 |
| 20260505001515 | 59 | 236 | 0.9 | 3.5 | 0.00 | 0.00 | 0.00 | 81 | 1022.5 |
| 20260505000014 | 58 | 213 | 2.6 | 6.1 | 0.00 | 0.00 | 0.00 | 87 | 1022.5 |
| 20260504234556 | 58 | 78 | 0.0 | 0.9 | 0.00 | 0.00 | 0.00 | 92 | 1022.4 |
| 20260504233102 | 56 | 77 | 0.0 | 0.9 | 0.00 | 0.00 | 0.00 | 92 | 1022.4 |
| 20260504231534 | 56 | 43 | 0.0 | 1.7 | 0.00 | 0.00 | 0.00 | 93 | 1022.4 |
| 20260504230030 | 56 | 42 | 0.0 | 0.9 | 0.00 | 0.00 | 0.00 | 93 | 1022.2 |
| 20260504224533 | 55 | 42 | 0.0 | 0.9 | 0.00 | 0.00 | 0.00 | 93 | 1022.0 |
| 20260504223026 | 55 | 50 | 0.0 | 2.6 | 0.00 | 0.00 | 0.00 | 93 | 1021.9 |
| 20260504221522 | 54 | 84 | 0.0 | 1.7 | 0.00 | 0.00 | 0.00 | 93 | 1021.8 |
| 20260504220020 | 54 | 41 | 0.0 | 1.7 | 0.00 | 0.00 | 0.00 | 93 | 1021.6 |
| 20260504214519 | 54 | 69 | 0.0 | 0.0 | 0.00 | 0.00 | 0.00 | 92 | 1021.4 |
| 20260504213016 | 54 | 87 | 0.0 | 0.0 | 0.00 | 0.00 | 0.00 | 92 | 1021.3 |
| 20260504211552 | 54 | 43 | 0.0 | 0.0 | 0.00 | 0.00 | 0.00 | 92 | 1021.2 |
| 20260504210050 | 54 | 20 | 0.0 | 2.6 | 0.00 | 0.00 | 0.00 | 92 | 1021.0 |
| 20260504204551 | 54 | 45 | 0.0 | 2.6 | 0.00 | 0.00 | 0.00 | 91 | 1020.7 |
| 20260504203050 | 54 | 64 | 1.7 | 3.5 | 0.00 | 0.00 | 0.00 | 91 | 1020.6 |
| 20260504201546 | 55 | 93 | 0.0 | 1.7 | 0.00 | 0.00 | 0.00 | 91 | 1020.5 |
| 20260504200044 | 55 | 50 | 1.7 | 3.5 | 0.00 | 0.00 | 0.00 | 90 | 1020.4 |
| 20260504194545 | 55 | 88 | 0.0 | 2.6 | 0.00 | 0.00 | 0.00 | 89 | 1020.3 |
| 20260504193039 | 55 | 89 | 0.9 | 2.6 | 0.00 | 0.00 | 0.00 | 88 | 1020.1 |
| 20260504191524 | 56 | 115 | 0.0 | 0.9 | 0.00 | 0.00 | 0.00 | 88 | 1020.1 |
| 20260504190024 | 57 | 122 | 2.6 | 4.3 | 0.00 | 0.00 | 0.00 | 86 | 1019.9 |
| 20260504184523 | 58 | 153 | 5.2 | 7.8 | 0.00 | 0.00 | 0.00 | 84 | 1019.9 |
| 20260504183018 | 59 | 206 | 7.8 | 10.4 | 0.00 | 0.00 | 0.00 | 82 | 1019.7 |
| 20260504181517 | 58 | 213 | 6.1 | 10.4 | 0.00 | 0.00 | 0.00 | 83 | 1019.6 |
| 20260504180017 | 58 | 216 | 6.1 | 12.2 | 0.00 | 0.00 | 0.00 | 84 | 1019.6 |
| 20260504174516 | 58 | 242 | 7.0 | 11.3 | 0.00 | 0.00 | 0.00 | 84 | 1019.5 |
| 20260504173018 | 58 | 225 | 6.1 | 10.4 | 0.00 | 0.00 | 0.00 | 84 | 1019.5 |
| 20260504171557 | 58 | 209 | 7.0 | 10.4 | 0.00 | 0.00 | 0.00 | 86 | 1019.7 |
| 20260504090124 | 61 | 192 | 10.4 | 14.8 | 0.00 | 0.00 | 0.00 | 73 | 1016.4 |
| 20260504081541 | 62 | 232 | 10.4 | 14.8 | 0.00 | 0.00 | 0.00 | 73 | 1015.8 |
| 20260504050008 | 65 | 233 | 10.4 | 14.8 | 0.00 | 0.00 | 0.00 | 70 | 1014.1 |
| 20260504044515 | 65 | 237 | 9.6 | 15.6 | 0.00 | 0.00 | 0.00 | 72 | 1013.8 |
| 20260504043007 | 65 | 256 | 9.6 | 15.6 | 0.00 | 0.00 | 0.00 | 72 | 1013.8 |
| 20260504041511 | 65 | 257 | 11.3 | 13.9 | 0.00 | 0.00 | 0.00 | 72 | 1013.7 |
| 20260504040106 | 65 | 229 | 9.6 | 15.6 | 0.00 | 0.00 | 0.00 | 74 | 1013.9 |
| 20260504034553 | 65 | 244 | 10.4 | 16.5 | 0.00 | 0.00 | 0.00 | 73 | 1013.8 |
| 20260504033053 | 64 | 232 | 9.6 | 15.6 | 0.00 | 0.00 | 0.00 | 74 | 1013.8 |
| 20260504031550 | 64 | 237 | 10.4 | 15.6 | 0.00 | 0.00 | 0.00 | 74 | 1013.8 |
| 20260504030048 | 64 | 240 | 11.3 | 15.6 | 0.00 | 0.00 | 0.00 | 74 | 1014.0 |